St. Charles, IL

6:07 PM CDT on April 26, 2017 (GMT -0500)
Saint Charles County Smartt

Weather History for KSET - August, 2013

Change the Weather History Date:

Friday, August 30, 2013

  Actual Average (KSTL) Record (KSTL)
Temperature  
Mean Temperature 86 °F -  
Max Temperature 99 °F 86 °F 102 °F (2013)
Min Temperature 73 °F 66 °F 50 °F (1934)
Cooling Degree Days 20    
Growing Degree Days 36 (Base 50)    
Moisture  
Dew Point 72 °F    
Average Humidity 76    
Maximum Humidity 96    
Minimum Humidity 37    
Precipitation  
Precipitation 0.00 in - - ()
Sea Level Pressure  
Sea Level Pressure 29.90 in    
Wind  
Wind Speed 2 mph (WSW)    
Max Wind Speed 12 mph    
Max Gust Speed 17 mph    
Visibility 7 miles    
Events Fog    
Averages and records for this station are not official NWS values.
T = Trace of Precipitation, MM = Missing Value Source: NWS Daily Summary

Daily Weather History Graph

Daily Weather History Graph

Search for Another Location

Airport or City:

Trip Planner

Search our weather history database for the weather conditions in past years. The results will help you decide how hot, cold, wet, or windy it might be!

Date:

Astronomy

Aug. 30, 2013 Rise Set
Actual Time 6:29 AM CDT 7:34 PM CDT
Civil Twilight 6:01 AM CDT 8:02 PM CDT
Nautical Twilight 5:28 AM CDT 8:34 PM CDT
Astronomical Twilight 4:54 AM CDT 9:08 PM CDT
Moon 1:09 AM CDT (8/30) 3:48 PM CDT (8/30)
Length of Visible Light 14h 00m
Length of Day
13h 05m
Waning Crescent, 29% of the Moon is Illuminated
Aug 30
Waning Crescent
Sep 5
New
Sep 12
First Quarter
Sep 19
Full
Sep 26
Last Quarter

Hourly Weather History & Observations

Time (CDT) Temp. Heat Index Dew Point Humidity Pressure Visibility Wind Dir Wind Speed Gust Speed Precip Events Conditions
12:54 AM 75.9 °F - 73.9 °F 94% 29.95 in 7.0 mi ENE 3.5 mph - N/A   Clear
1:54 AM 75.9 °F - 73.0 °F 91% 29.94 in 7.0 mi Calm Calm - N/A   Clear
2:54 AM 75.9 °F - 73.0 °F 91% 29.93 in 5.0 mi Calm Calm - N/A   Clear
3:41 AM 75.2 °F - 73.4 °F 94% 29.95 in 2.5 mi Calm Calm - N/A   Clear
3:54 AM 75.0 °F - 73.0 °F 94% 29.93 in 2.5 mi Calm Calm - N/A   Clear
4:11 AM 75.2 °F - 71.6 °F 89% 29.95 in 6.0 mi Calm Calm - N/A   Clear
4:54 AM 73.9 °F - 71.1 °F 91% 29.93 in 7.0 mi Calm Calm - N/A   Clear
5:45 AM 73.4 °F - 71.6 °F 94% 29.95 in 1.8 mi Calm Calm - N/A   Scattered Clouds
5:47 AM 73.4 °F - 71.6 °F 94% 29.95 in 0.8 mi Calm Calm - N/A   Mist
5:54 AM 73.0 °F - 72.0 °F 96% 29.94 in 0.5 mi Calm Calm - N/A Fog Fog
5:58 AM 73.4 °F - 71.6 °F 94% 29.95 in 2.0 mi Calm Calm - N/A   Mostly Cloudy
6:01 AM 73.4 °F - 71.6 °F 94% 29.95 in 3.0 mi Calm Calm - N/A   Mostly Cloudy
6:11 AM 75.2 °F - 73.4 °F 94% 29.95 in 2.0 mi Calm Calm - N/A   Mostly Cloudy
6:22 AM 75.2 °F - 73.4 °F 94% 29.96 in 6.0 mi Calm Calm - N/A   Mostly Cloudy
6:54 AM 75.0 °F - 73.0 °F 94% 29.94 in 5.0 mi Calm Calm - N/A   Scattered Clouds
7:54 AM 78.1 °F - 73.0 °F 84% 29.95 in 7.0 mi Calm Calm - N/A   Clear
8:54 AM 82.0 °F 87.4 °F 73.0 °F 74% 29.95 in 9.0 mi SW 4.6 mph - N/A   Clear
9:54 AM 86.0 °F 93.8 °F 73.9 °F 67% 29.94 in 9.0 mi West 3.5 mph - N/A   Clear
10:54 AM 90.0 °F 99.0 °F 73.9 °F 59% 29.92 in 10.0 mi West 5.8 mph - N/A   Clear
11:54 AM 93.0 °F 101.9 °F 73.0 °F 52% 29.91 in 10.0 mi WNW 6.9 mph - N/A   Clear
12:54 PM 96.1 °F 104.9 °F 72.0 °F 46% 29.89 in 10.0 mi West 9.2 mph 17.3 mph N/A   Clear
1:54 PM 98.1 °F 104.4 °F 69.1 °F 39% 29.87 in 10.0 mi WSW 11.5 mph - N/A   Clear
2:54 PM 98.1 °F 103.0 °F 68.0 °F 37% 29.85 in 10.0 mi West 6.9 mph - N/A   Partly Cloudy
3:54 PM 98.1 °F 104.4 °F 69.1 °F 39% 29.84 in 10.0 mi SW 3.5 mph - N/A   Clear
4:54 PM 98.1 °F 104.4 °F 69.1 °F 39% 29.82 in 10.0 mi WSW 6.9 mph - N/A   Clear
5:54 PM 96.1 °F 104.9 °F 72.0 °F 46% 29.81 in 10.0 mi SSW 4.6 mph - N/A   Partly Cloudy
6:54 PM 91.0 °F 99.3 °F 73.0 °F 55% 29.80 in 10.0 mi SSW 6.9 mph - N/A   Scattered Clouds
7:54 PM 82.9 °F 88.8 °F 73.0 °F 72% 29.81 in 10.0 mi Calm Calm - N/A   Scattered Clouds
8:54 PM 82.9 °F 88.8 °F 73.0 °F 72% 29.81 in 10.0 mi Calm Calm - N/A   Clear
9:54 PM 80.1 °F 85.1 °F 75.0 °F 85% 29.81 in 10.0 mi Calm Calm - N/A   Clear
10:54 PM 79.0 °F - 73.9 °F 84% 29.81 in 9.0 mi Calm Calm - N/A   Clear
11:54 PM 77.0 °F - 73.0 °F 88% 29.81 in 10.0 mi Calm Calm - N/A   Clear